IW5CI-13 Weather Reports


time (UTC)temp
F
wind
direction
speed
knots
gust
knots
rain 1hr
in
rain 24hr
in
rain mn
in
humidity
%
barometer
mb
20260506232038 54 0.0 0.0 0.00 0.00 0.00 45 1014.0
20260506230033 53 0.0 0.0 0.00 0.00 0.00 46 1014.2
20260506224028 54 0.0 0.0 0.00 0.00 0.00 44 1014.3
20260506222022 54 0.0 0.0 0.00 0.00 0.00 44 1014.1
20260506220017 55 0.0 0.0 0.00 0.00 0.00 45 1014.3
20260506214012 54 0.0 0.0 0.00 0.00 0.00 45 1014.2
20260506212007 56 0.0 0.0 0.00 0.00 0.00 43 1014.1
20260506210001 55 0.0 0.0 0.00 0.00 0.00 45 1013.8
20260506203956 56 0.0 0.0 0.00 0.00 0.00 45 1013.7
20260506201951 56 0.0 0.0 0.00 0.00 0.00 44 1013.6
20260506195945 54 0.0 0.0 0.00 0.00 0.00 46 1013.4
20260506193940 56 0.0 0.0 0.00 0.00 0.00 46 1013.1
20260506191934 57 0.0 0.0 0.00 0.00 0.00 47 1012.8
20260506183924 58 0.0 0.0 0.00 0.00 0.00 47 1012.0
20260506181919 60 0.0 0.0 0.00 0.00 0.00 45 1011.7
20260506175914 60 0.0 0.0 0.00 0.00 0.00 45 1011.6
20260506173908 61 0.0 0.0 0.00 0.00 0.00 45 1011.5
20260506171903 60 0.0 0.0 0.00 0.00 0.00 46 1011.3
20260506165858 61 0.0 0.0 0.00 0.00 0.00 43 1011.5
20260506163853 61 0.0 0.0 0.00 0.00 0.00 42 1011.1
20260506161848 60 0.0 0.0 0.00 0.00 0.00 43 1011.0
20260506155843 61 0.0 0.0 0.00 0.00 0.00 43 1011.1
20260506153837 62 0.0 0.0 0.00 0.00 0.00 42 1010.7
20260506151832 63 0.0 0.0 0.00 0.00 0.00 40 1010.4
20260506145827 63 0.0 0.0 0.00 0.00 0.00 37 1010.5
20260506143822 63 0.0 0.0 0.00 0.00 0.00 36 1010.5
20260506141817 65 0.0 0.0 0.00 0.00 0.00 34 1010.7
20260506135811 65 0.0 0.0 0.00 0.00 0.00 33 1010.7
20260506133806 65 0.0 0.0 0.00 0.00 0.00 34 1010.7
20260506131801 63 0.0 0.0 0.00 0.00 0.00 39 1010.6
20260506125756 61 0.0 0.0 0.00 0.00 0.00 40 1010.8
20260506123751 61 0.0 0.0 0.00 0.00 0.00 40 1011.0
20260506121745 61 0.0 0.0 0.00 0.00 0.00 39 1010.9
20260506111730 62 0.0 0.0 0.00 0.00 0.00 38 1011.2
20260506103720 64 0.0 0.0 0.00 0.00 0.00 36 1011.5
20260506101714 63 0.0 0.0 0.00 0.00 0.00 36 1011.7
20260506095709 61 0.0 0.0 0.00 0.00 0.00 39 1011.6
20260506093704 60 0.0 0.0 0.00 0.00 0.00 39 1011.6
20260506091659 57 0.0 0.0 0.00 0.00 0.00 41 1011.4
20260506085654 60 0.0 0.0 0.00 0.00 0.00 39 1011.6
20260506083648 59 0.0 0.0 0.00 0.00 0.00 43 1011.7
20260506081643 55 0.0 0.0 0.00 0.00 0.00 50 1011.5
20260506061612 54 0.0 0.0 0.00 0.00 0.00 48 1011.2
20260506043547 55 0.0 0.0 0.00 0.00 0.00 49 1011.5
20260506041542 57 0.0 0.0 0.00 0.00 0.00 47 1011.7
20260506035536 56 0.0 0.0 0.00 0.00 0.00 49 1012.0
20260506033530 55 0.0 0.0 0.00 0.00 0.00 50 1012.0
20260506031524 56 0.0 0.0 0.00 0.00 0.00 50 1012.1
20260506025519 56 0.0 0.0 0.00 0.00 0.00 51 1011.8
20260506023513 57 0.0 0.0 0.00 0.00 0.00 49 1011.9
20260506021507 56 0.0 0.0 0.00 0.00 0.00 51 1011.4
20260506013456 56 0.0 0.0 0.00 0.00 0.00 51 1011.8
20260506011450 56 0.0 0.0 0.00 0.00 0.00 50 1012.0
20260506005445 56 0.0 0.0 0.00 0.00 0.00 50 1012.4
20260506003440 55 0.0 0.0 0.00 0.00 0.00 52 1012.7
20260506001435 56 0.0 0.0 0.00 0.00 0.00 50 1012.7